Home > Weather > Brilon > Past weeks

Flag for Germany Weather for the Past 2 Weeks in Brilon, North Rhine-Westphalia, Germany

Now
64 °F

Sunny.


Feels Like: 64 °F
Forecast: 49 / 67 °F
Wind: 13 mph from East

Location: Paderborn / Lippstadt

Current Time: May 5, 2016 at 6:19:27 PM

Latest Report: May 5, 2016 at 5:50 PM


Visibility: 10 mi

Pressure: 30.18 "Hg

Humidity: 40%

Dew Point: 39 °F

Location of BrilonLocation

Historic Weather in Brilon — Graph

°F

Brilon Temperature Yesterday

Maximum temperature yesterday: 57 °F (at 5:50 PM)
Minimum temperature yesterday: 39 °F (at 1:50 AM)
Average temperature yesterday: 47 °F

High & Low Weather Summary for the Past Weeks

 TemperatureHumidityPressure
High66 °F (May 2, 3:20 PM)100% (Apr 21, 1:50 AM)30.42 "Hg (Apr 21, 1:50 AM)
Low32 °F (Apr 24, 4:20 PM)28% (May 2, 2:50 PM)29.45 "Hg (Apr 26, 10:50 AM)
Average45 °F76%30.02 "Hg
* Reported Apr 20 4:20 PM — May 5 4:50 PM, Brilon, Weather by CustomWeather, © 2016

Note: Actual official high and low records may vary slightly from our data, if they occured in-between our weather recording intervals... More about our weather records

Advertising

Brilon Weather History for the Previous 24 Hours

Scroll right to see more
 ConditionsComfort  
Time TempWeatherWind HumidityBarometerVisibility
4:50 PM
Thu, May 5
64 °FPassing clouds.15 mph40%30.18 "HgN/A
4:20 PM63 °FSunny.12 mph42%30.21 "Hg10 mi
3:50 PM63 °FSunny.16 mph42%30.21 "Hg10 mi
3:20 PM64 °FSunny.12 mph43%30.21 "Hg10 mi
2:50 PM63 °FSunny.15 mph39%30.24 "Hg10 mi
2:20 PM63 °FSunny.14 mph42%30.24 "Hg10 mi
1:50 PM63 °FSunny.9 mph45%30.27 "Hg10 mi
1:20 PM61 °FSunny.14 mph45%30.27 "Hg10 mi
12:50 PM59 °FSunny.10 mph51%30.27 "Hg10 mi
12:20 PM59 °FSunny.13 mph48%30.30 "Hg10 mi
11:50 AM59 °FPassing clouds.10 mph48%30.30 "HgN/A
11:20 AM57 °FPassing clouds.10 mph55%30.30 "HgN/A
10:50 AM55 °FPassing clouds.13 mph55%30.33 "HgN/A
10:20 AM55 °FPassing clouds.12 mph51%30.33 "HgN/A
9:50 AM54 °FSunny.10 mph51%30.33 "Hg10 mi
9:20 AM52 °FPassing clouds.9 mph50%30.33 "HgN/A
8:50 AM52 °FSunny.7 mph54%30.36 "Hg10 mi
8:20 AM50 °FSunny.6 mph58%30.36 "Hg10 mi
7:50 AM46 °FSunny.6 mph66%30.36 "Hg10 mi
7:20 AM41 °FSunny.7 mph76%30.36 "Hg10 mi
6:50 AM39 °FSunny.6 mph81%30.36 "Hg10 mi
6:20 AM39 °FClear.7 mph75%30.36 "Hg10 mi
5:50 AM41 °FClear.6 mph70%30.36 "Hg10 mi
5:20 AM43 °FClear.8 mph66%30.36 "Hg10 mi
4:50 AM43 °FClear.7 mph66%30.33 "Hg10 mi
4:20 AM43 °FClear.6 mph66%30.36 "Hg10 mi
3:50 AM41 °FClear.5 mph70%30.33 "Hg10 mi
3:20 AM43 °FClear.5 mph66%30.36 "Hg10 mi
2:50 AM43 °FClear.5 mph66%30.36 "Hg10 mi
2:20 AM43 °FClear.5 mph66%30.36 "Hg10 mi
1:50 AM43 °FClear.6 mph66%30.36 "Hg10 mi
1:20 AM43 °FClear.6 mph66%30.36 "Hg10 mi
12:50 AM43 °FClear.6 mph66%30.36 "Hg10 mi
12:20 AM43 °FClear.6 mph66%30.36 "Hg10 mi
11:50 PM
Wed, May 4
45 °FClear.6 mph61%30.36 "Hg10 mi
11:20 PM45 °FClear.7 mph66%30.36 "Hg10 mi
10:50 PM45 °FClear.7 mph61%30.36 "Hg10 mi
10:20 PM46 °FClear.6 mph62%30.36 "Hg10 mi
9:50 PM48 °FSunny.5 mph54%30.36 "Hg10 mi
9:20 PM50 °FSunny.5 mph50%30.36 "Hg10 mi
8:50 PM52 °FSunny.6 mph47%30.36 "Hg10 mi
8:20 PM52 °FSunny.5 mph47%30.36 "Hg10 mi
7:50 PM54 °FSunny.7 mph41%30.36 "Hg10 mi
7:20 PM55 °FSunny.6 mph38%30.36 "Hg10 mi
6:50 PM54 °FSunny.3 mph41%30.36 "Hg10 mi
6:20 PM57 °FSunny.7 mph33%30.36 "Hg10 mi
Weather by CustomWeather, © 2016

See weather overviewHow to use our weather pages